******************************************************************************* JPL/HORIZONS NEOWISE (C/2014 N3) 2025-Dec-12 17:47:28 Rec #:90004279 (+COV) Soln.date: 2021-Apr-15_23:32:57 # obs: 1594 (2014-2017) IAU76/J2000 helio. ecliptic osc. elements (au, days, deg., period=Julian yrs): EPOCH= 2457239.5 ! 2015-Aug-05.0000000 (TDB) RMSW= n.a. EC= .9993310162842178 QR= 3.882230903759567 TP= 2457094.699772038 OM= 19.92706462999456 W= 353.565396131855 IN= 61.6382479533703 A= 5803.176986483908 MA= .0003228305273351882ADIST= 11602.47174206406 PER= 442086.16730072 N= 2.229E-6 ANGMOM= .04792526 DAN= 3.89449 DDN= 1114.51334 L= 16.8604063 B= -5.6595358 MOID= 2.88806009 TP= 2015-Mar-13.1997720380 Comet physical (GM= km^3/s^2; RAD= km): GM= n.a. RAD= n.a. M1= 5. M2= 10.6 k1= 12.5 k2= 5. PHCOF= .030 COMET comments 1: soln ref.= JPL#52, data arc: 2014-07-04 to 2017-01-06 2: k1=12.5, k2=5., phase coef.=0.03; ******************************************************************************* ******************************************************************************* Ephemeris / WWW_USER Fri Dec 12 17:47:28 2025 Pasadena, USA / Horizons ******************************************************************************* Target body name: NEOWISE (C/2014 N3) {source: JPL#52} Center body name: Solar System Barycenter (0) {source: DE441} Center-site name: BODY CENTER ******************************************************************************* Start time : A.D. 1800-Jan-01 00:00:00.0000 TDB Stop time : A.D. 2200-Jan-01 00:00:00.0000 TDB Step-size : 400 calendar years ******************************************************************************* Center geodetic : 0.0, 0.0, 0.0 {E-lon(deg),Lat(deg),Alt(km)} Center cylindric: 0.0, 0.0, 0.0 {E-lon(deg),Dxy(km),Dz(km)} Center radii : (undefined) Keplerian GM : 2.9630927493968080E-04 au^3/d^2 Small perturbers: Yes {source: SB441-N16} Output units : AU-D, deg, Julian Day Number (Tp) Calendar mode : Mixed Julian/Gregorian Output type : GEOMETRIC osculating elements Output format : 10 Reference frame : Ecliptic of J2000.0 ******************************************************************************* Initial IAU76/J2000 heliocentric ecliptic osculating elements (au, days, deg.): EPOCH= 2457239.5 ! 2015-Aug-05.0000000 (TDB) RMSW= n.a. EC= .9993310162842178 QR= 3.882230903759567 TP= 2457094.699772038 OM= 19.92706462999456 W= 353.565396131855 IN= 61.6382479533703 Equivalent ICRF heliocentric cartesian coordinates (au, au/d): X= 3.410159872716295E+00 Y= 1.285722158737422E+00 Z= 1.836544600361413E+00 VX=-3.184321824393270E-03 VY= 2.998618470854319E-04 VZ= 1.160758389382903E-02 Comet physical (GM= km^3/s^2; RAD= km): GM= n.a. RAD= n.a. M1= 5. M2= 10.6 k1= 12.5 k2= 5. PHCOF= .030 ******************************************************************************* JDTDB EC QR IN OM W Tp N MA TA A AD PR ******************************************************************************* $$SOE 2378496.500000000 = A.D. 1800-Jan-01 00:00:00.0000 TDB EC= 9.998693619247917E-01 QR= 3.886213611040447E+00 IN= 6.160833987577436E+01 OM= 1.991705289489996E+01 W = 3.535104009366418E+02 Tp= 2457094.266830656212 N = 1.922250187781518E-07 MA= 3.599848915427951E+02 TA= 1.960801291724439E+02 A = 2.974793990857587E+04 AD= 5.949199360354069E+04 PR= 1.872805123330374E+09 2524593.500000000 = A.D. 2200-Jan-01 00:00:00.0000 TDB EC= 9.981830590242878E-01 QR= 3.885432999797573E+00 IN= 6.161937313468407E+01 OM= 1.987881459630428E+01 W = 3.535410125207848E+02 Tp= 2457094.188498052768 N = 9.973494386398518E-06 MA= 6.732040043504456E-01 TA= 1.633158672947807E+02 A = 2.138447561993649E+03 AD= 4.273009690987500E+03 PR= 3.609567379823811E+07 $$EOE ******************************************************************************* TIME Barycentric Dynamical Time ("TDB" or T_eph) output was requested. This continuous coordinate time is equivalent to the relativistic proper time of a clock at rest in a reference frame co-moving with the solar system barycenter but outside the system's gravity well. It is the independent variable in the solar system relativistic equations of motion. TDB runs at a uniform rate of one SI second per second and is independent of irregularities in Earth's rotation. CALENDAR SYSTEM Mixed calendar mode was active such that calendar dates after AD 1582-Oct-15 (if any) are in the modern Gregorian system. Dates prior to 1582-Oct-5 (if any) are in the Julian calendar system, which is automatically extended for dates prior to its adoption on 45-Jan-1 BC. The Julian calendar is useful for matching historical dates. The Gregorian calendar more accurately corresponds to the Earth's orbital motion and seasons. A "Gregorian-only" calendar mode is available if such physical events are the primary interest. REFERENCE FRAME AND COORDINATES Ecliptic at the standard reference epoch Reference epoch: J2000.0 X-Y plane: adopted Earth orbital plane at the reference epoch Note: IAU76 obliquity of 84381.448 arcseconds wrt ICRF X-Y plane X-axis : ICRF Z-axis : perpendicular to the X-Y plane in the directional (+ or -) sense of Earth's north pole at the reference epoch. Symbol meaning [1 au= 149597870.700 km, 1 day= 86400.0 s]: JDTDB Julian Day Number, Barycentric Dynamical Time EC Eccentricity, e QR Periapsis distance, q (au) IN Inclination w.r.t X-Y plane, i (degrees) OM Longitude of Ascending Node, OMEGA, (degrees) W Argument of Perifocus, w (degrees) Tp Time of periapsis (Julian Day Number) N Mean motion, n (degrees/day) MA Mean anomaly, M (degrees) TA True anomaly, nu (degrees) A Semi-major axis, a (au) AD Apoapsis distance (au) PR Sidereal orbit period (day) ABERRATIONS AND CORRECTIONS Geometric osculating elements have NO corrections or aberrations applied. Computations by ... Solar System Dynamics Group, Horizons On-Line Ephemeris System 4800 Oak Grove Drive, Jet Propulsion Laboratory Pasadena, CA 91109 USA General site: https://ssd.jpl.nasa.gov/ Mailing list: https://ssd.jpl.nasa.gov/email_list.html System news : https://ssd.jpl.nasa.gov/horizons/news.html User Guide : https://ssd.jpl.nasa.gov/horizons/manual.html Connect : browser https://ssd.jpl.nasa.gov/horizons/app.html#/x API https://ssd-api.jpl.nasa.gov/doc/horizons.html command-line telnet ssd.jpl.nasa.gov 6775 e-mail/batch https://ssd.jpl.nasa.gov/ftp/ssd/horizons_batch.txt scripts https://ssd.jpl.nasa.gov/ftp/ssd/SCRIPTS Author : Jon.D.Giorgini@jpl.nasa.gov ******************************************************************************* !$$SOF CENTER = '@0' COMMAND = '2014 N3' OUT_UNITS = 'AU-D' START_TIME = '1800-01-01' STEP_SIZE = '400 years' STOP_TIME = '2200-01-01' TABLE_TYPE = 'ELEMENTS'